FW9881 Weather Reports


time (UTC)temp
C
wind
direction
speed
KPH
gust
KPH
rain 1hr
cm
rain 24hr
cm
rain mn
cm
humidity
%
barometer
mb
20260508030942 5 180 0.0 0.0 0.00 0.00 0.00 73 1011.9
20260508030826 5 180 0.0 0.0 0.00 0.00 0.00 73 1011.9
20260508030727 5 180 0.0 0.0 0.00 0.00 0.00 73 1012.0
20260508025726 5 180 0.0 0.0 0.00 0.00 0.00 72 1011.9
20260508025626 5 180 0.0 0.0 0.00 0.00 0.00 72 1011.9
20260508024626 5 180 0.0 0.0 0.00 0.00 0.00 70 1011.9
20260508023627 6 180 0.0 0.0 0.00 0.00 0.00 67 1011.9
20260508022626 6 180 0.0 0.0 0.00 0.05 0.00 65 1011.9
20260508022525 6 180 0.0 0.0 0.00 0.05 0.00 65 1011.9
20260508021525 6 180 0.0 0.0 0.00 0.08 0.00 66 1011.8
20260508020528 6 180 0.0 0.0 0.00 0.08 0.00 65 1011.8
20260508014624 6 180 0.0 0.0 0.00 0.10 0.00 60 1011.5
20260508013626 6 180 0.0 0.0 0.00 0.10 0.00 58 1011.2
20260508012625 7 175 0.0 0.0 0.00 0.10 0.00 58 1011.1
20260508010626 7 315 0.0 1.6 0.00 0.13 0.00 53 1011.0
20260508005625 7 247 0.0 0.0 0.00 0.15 0.00 52 1011.0
20260508004625 8 266 1.6 3.2 0.00 0.18 0.00 49 1010.7
20260508003628 8 180 0.0 0.0 0.00 0.25 0.00 47 1010.8
20260508003527 8 180 0.0 0.0 0.00 0.25 0.00 47 1010.8
20260508003427 8 180 0.0 0.0 0.00 0.25 0.00 47 1010.8
20260508002525 9 180 0.0 0.0 0.00 0.25 0.00 45 1010.6
20260508001625 9 270 0.0 3.2 0.00 0.25 0.00 44 1010.5
20260508000626 10 22 0.0 0.0 0.00 0.25 0.00 42 1010.4
20260507235725 10 254 0.0 3.2 0.00 0.25 0.00 41 1010.3
20260507234727 10 268 3.2 4.8 0.00 0.25 0.00 40 1010.1
20260507233725 11 259 6.4 9.7 0.00 0.25 0.00 39 1010.1
20260507233625 11 326 3.2 4.8 0.00 0.25 0.00 39 1010.1
20260507232626 11 286 4.8 9.7 0.00 0.25 0.00 38 1010.2
20260507232527 11 301 3.2 8.0 0.00 0.25 0.00 39 1010.2
20260507231626 11 279 3.2 6.4 0.00 0.25 0.00 39 1010.1
20260507230626 11 327 3.2 6.4 0.00 0.25 0.00 39 1010.1
20260507225626 11 299 4.8 9.7 0.00 0.25 0.00 39 1010.1
20260507225529 11 328 4.8 9.7 0.00 0.25 0.00 39 1010.1
20260507224626 11 337 3.2 4.8 0.00 0.25 0.00 40 1010.1
20260507224525 11 337 1.6 3.2 0.00 0.25 0.00 40 1010.1
20260507224428 11 337 0.0 1.6 0.00 0.25 0.00 40 1010.1
20260507221425 11 331 3.2 4.8 0.00 0.25 0.00 38 1009.7
20260507220426 12 320 3.2 6.4 0.00 0.25 0.00 38 1009.7
20260507215525 12 327 1.6 4.8 0.00 0.25 0.00 37 1009.7
20260507215425 12 290 1.6 9.7 0.00 0.25 0.00 37 1009.6
20260507214426 12 271 4.8 11.3 0.00 0.25 0.00 37 1009.4
20260507213429 12 269 0.0 1.6 0.00 0.25 0.00 37 1009.5
20260507212427 12 330 4.8 9.7 0.00 0.25 0.00 37 1009.5
20260507211426 12 287 6.4 11.3 0.00 0.25 0.00 35 1009.4
20260507211326 12 272 8.0 14.5 0.00 0.25 0.00 36 1009.3
20260507210326 13 271 9.7 20.9 0.00 0.25 0.00 34 1009.5
20260507205425 13 261 11.3 20.9 0.00 0.25 0.00 34 1009.4
20260507204425 13 284 8.0 17.7 0.00 0.25 0.00 34 1009.2
20260507203427 13 276 9.7 17.7 0.00 0.25 0.00 34 1009.1
20260507203325 13 266 16.1 25.7 0.00 0.25 0.00 34 1009.1
20260507202326 13 359 6.4 12.9 0.00 0.25 0.00 34 1009.2
20260507195224 14 223 3.2 6.4 0.00 0.30 0.00 34 1009.3
20260507194225 15 329 4.8 9.7 0.00 0.30 0.00 36 1009.4
20260507193324 13 332 6.4 12.9 0.00 0.33 0.00 36 1009.4
20260507193226 13 311 4.8 12.9 0.00 0.33 0.00 37 1009.4
20260507192225 13 269 6.4 9.7 0.00 0.38 0.00 38 1009.6
20260507191324 13 293 8.0 14.5 0.00 0.43 0.00 37 1009.5
20260507191226 13 328 6.4 14.5 0.00 0.46 0.00 37 1009.7
20260507190124 13 341 4.8 9.7 0.00 0.48 0.00 37 1009.7
20260507185126 13 335 1.6 6.4 0.00 0.51 0.00 39 1009.8
20260507184126 13 251 6.4 14.5 0.00 0.51 0.00 39 1009.8
20260507183125 13 270 6.4 11.3 0.00 0.51 0.00 39 1009.9
20260507182126 13 277 9.7 14.5 0.00 0.53 0.00 38 1010.3
20260507181126 13 316 9.7 17.7 0.00 0.56 0.00 38 1010.2
20260507175226 12 278 8.0 14.5 0.00 0.61 0.00 39 1010.3
20260507175142 12 337 4.8 14.5 0.00 0.61 0.00 38 1010.2
20260507174228 12 266 11.3 16.1 0.00 0.64 0.00 37 1010.3
20260507173225 12 351 6.4 14.5 0.00 0.66 0.00 38 1010.3
20260507173125 12 336 3.2 6.4 0.00 0.66 0.00 38 1010.3
20260507172126 12 269 4.8 11.3 0.00 0.69 0.00 37 1010.3
20260507171225 12 270 9.7 22.5 0.00 0.71 0.00 39 1010.5
20260507171124 12 334 6.4 16.1 0.00 0.71 0.00 38 1010.3
20260507170125 12 272 9.7 16.1 0.00 0.71 0.00 38 1010.6
20260507170024 12 252 9.7 14.5 0.00 0.71 0.00 39 1010.8
20260507165026 12 334 9.7 17.7 0.00 0.76 0.00 39 1011.0
20260507164125 12 297 9.7 17.7 0.00 0.76 0.00 41 1011.0
20260507163224 12 272 8.0 17.7 0.00 0.76 0.00 41 1011.1
20260507162227 11 241 9.7 14.5 0.00 0.76 0.00 41 1011.0
20260507161225 11 314 6.4 11.3 0.00 0.76 0.00 40 1011.2
20260507160323 12 252 11.3 17.7 0.00 0.76 0.00 41 1011.3
20260507160224 12 336 8.0 14.5 0.00 0.76 0.00 42 1011.2
20260507155225 12 295 4.8 9.7 0.00 0.76 0.00 42 1011.3
20260507154227 11 357 12.9 22.5 0.00 0.76 0.00 41 1011.1
20260507152341 11 276 1.6 4.8 0.00 0.76 0.00 45 1011.4
20260507151426 11 293 6.4 11.3 0.00 0.76 0.00 44 1011.7
20260507150425 11 317 3.2 6.4 0.00 0.76 0.00 45 1011.7
20260507150326 11 285 11.3 17.7 0.00 0.76 0.00 46 1011.6
20260507150227 11 291 6.4 11.3 0.00 0.76 0.00 46 1011.8
20260507144327 11 335 9.7 16.1 0.00 0.76 0.00 49 1011.7
20260507143341 10 349 14.5 29.0 0.00 0.76 0.00 54 1011.5
20260507143226 10 339 6.4 11.3 0.00 0.76 0.00 54 1011.6
20260507142226 10 266 6.4 14.5 0.00 0.76 0.00 59 1011.7
20260507141225 10 320 12.9 19.3 0.00 0.76 0.00 63 1011.5
20260507141126 10 309 6.4 12.9 0.00 0.76 0.00 64 1011.7
20260507135224 9 249 11.3 19.3 0.00 0.76 0.00 73 1011.6
20260507135126 9 289 11.3 19.3 0.00 0.76 0.00 72 1011.6
20260507134140 10 318 6.4 14.5 0.00 0.76 0.00 73 1011.6
20260507133125 9 311 6.4 11.3 0.00 0.76 0.00 74 1011.5
20260507133041 9 252 8.0 14.5 0.00 0.76 0.00 74 1011.4
20260507131026 9 324 4.8 11.3 0.00 0.76 0.00 76 1011.7
20260507130926 9 296 6.4 14.5 0.00 0.76 0.00 76 1011.6
20260507125924 9 271 4.8 11.3 0.00 0.76 0.00 77 1011.6
20260507123926 8 319 6.4 12.9 0.00 0.76 0.00 78 1011.3
20260507122927 8 240 9.7 17.7 0.00 0.76 0.00 79 1011.3
20260507122024 8 253 6.4 11.3 0.00 0.76 0.00 80 1011.4
20260507121024 8 251 11.3 16.1 0.00 0.76 0.00 80 1011.4
20260507120026 8 344 1.6 4.8 0.00 0.76 0.00 82 1011.4
20260507115124 8 271 9.7 19.3 0.00 0.76 0.00 83 1011.3
20260507114224 7 295 8.0 14.5 0.00 0.76 0.00 84 1011.2
20260507113225 7 302 4.8 8.0 0.00 0.76 0.00 86 1011.4
20260507112225 7 327 6.4 9.7 0.00 0.76 0.00 87 1011.1
20260507111224 7 326 4.8 8.0 0.00 0.76 0.00 89 1011.2
20260507110224 6 318 3.2 6.4 0.00 0.76 0.00 89 1011.2
20260507105241 6 337 3.2 4.8 0.00 0.76 0.00 91 1011.0
20260507104324 6 346 3.2 6.4 0.00 0.76 0.00 90 1010.8
20260507103325 6 336 4.8 8.0 0.00 0.76 0.00 91 1010.5
20260507103226 6 299 4.8 12.9 0.00 0.76 0.00 91 1010.6
20260507102324 6 349 4.8 8.0 0.00 0.76 0.00 90 1010.5
20260507102223 6 312 6.4 11.3 0.00 0.76 0.00 91 1010.6
20260507095227 6 326 4.8 8.0 0.00 0.76 0.00 90 1010.6
20260507095125 6 346 3.2 8.0 0.00 0.76 0.00 90 1010.6
20260507094126 6 265 4.8 9.7 0.00 0.76 0.00 89 1011.0
20260507093125 6 343 4.8 8.0 0.00 0.76 0.00 90 1010.6
20260507093025 6 346 4.8 6.4 0.00 0.76 0.00 90 1010.9
20260507092025 6 315 0.0 1.6 0.00 0.76 0.00 90 1011.1
20260507091026 6 350 1.6 4.8 0.00 0.76 0.00 90 1011.1
20260507090025 6 7 3.2 4.8 0.00 0.76 0.00 90 1011.4
20260507083223 6 315 1.6 3.2 0.00 0.76 0.00 90 1011.0
20260507082226 6 310 3.2 6.4 0.00 0.76 0.00 89 1010.9
20260507081226 6 351 4.8 8.0 0.00 0.76 0.00 90 1011.0
20260507080224 6 311 4.8 6.4 0.00 0.76 0.00 90 1011.0
20260507073227 6 337 0.0 0.0 0.00 0.76 0.00 90 1011.2
20260507071225 6 11 0.0 3.2 0.00 0.76 0.00 90 1010.5
20260507070225 7 347 1.6 3.2 0.00 0.76 0.00 90 1010.5
20260507064225 7 356 1.6 4.8 0.00 0.76 0.00 90 1010.4
20260507062225 7 336 4.8 11.3 0.00 0.76 0.00 91 1010.4
20260507062125 7 341 3.2 4.8 0.00 0.76 0.00 91 1010.3
20260507062026 7 334 3.2 8.0 0.00 0.76 0.00 91 1010.4
20260507061123 7 321 1.6 3.2 0.00 0.76 0.00 91 1010.8
20260507060125 7 304 1.6 4.8 0.00 0.76 0.00 91 1010.8
20260507055126 7 247 0.0 0.0 0.00 0.76 0.00 90 1010.8
20260507055040 7 247 0.0 1.6 0.00 0.76 0.00 91 1010.9
20260507054124 7 157 0.0 0.0 0.00 0.76 0.00 91 1010.8
20260507054025 7 157 0.0 0.0 0.00 0.76 0.00 91 1010.8
20260507053925 7 157 0.0 0.0 0.00 0.76 0.00 90 1010.8
20260507053025 7 157 0.0 0.0 0.00 0.76 0.00 91 1011.0
20260507052025 7 157 0.0 0.0 0.00 0.76 0.00 91 1010.8
20260507050927 7 157 1.6 3.2 0.00 0.76 0.00 91 1010.9
20260507045925 8 135 0.0 1.6 0.00 0.76 0.00 91 1010.9
20260507044925 8 336 3.2 4.8 0.00 0.76 0.00 91 1010.8
20260507044824 8 11 3.2 6.4 0.00 0.76 0.00 91 1010.7
20260507044725 8 22 3.2 6.4 0.00 0.76 0.00 91 1010.6
20260507043725 8 178 0.0 1.6 0.00 0.76 0.00 90 1010.5
20260507043639 8 337 0.0 1.6 0.00 0.76 0.00 90 1010.4
20260507043525 8 337 0.0 3.2 0.00 0.76 0.00 90 1010.4
20260507041624 8 108 1.6 3.2 0.00 0.76 0.00 91 1010.5
20260507041524 8 337 0.0 1.6 0.00 0.76 0.00 91 1010.6
20260507041425 8 354 3.2 3.2 0.00 0.76 0.00 91 1010.5
20260507040424 8 180 0.0 0.0 0.00 0.76 0.00 91 1011.0
20260507035446 8 113 3.2 4.8 0.00 0.76 0.76 90 1010.8
20260507033630 8 337 0.0 0.0 0.00 0.76 0.76 91 1010.5
20260507033534 8 337 0.0 0.0 0.03 0.76 0.76 90 1010.5
20260507033431 8 325 1.6 4.8 0.03 0.76 0.76 90 1010.4
20260507032433 9 257 0.0 3.2 0.05 0.76 0.76 91 1010.3